User: anonymous   Login
Location: Adrasan
(36.3319°N, 30.4314°E)
Time: 13:33:27
(UTC+00:00)
Language:

SL-8 R/B - Orbit

View from above orbital plane
View from above orbital plane
View from above satellite
View from above satellite

Ground track
Ground track

The orbit data is extracted from the following two-line orbital elements,

1 33066U 08031G   24114.68380309  .00002086  00000-0  36703-3 0  9997
2 33066  48.4416 278.5864 0007936 260.0593  99.9423 14.71151809850812
Epoch (UTC): 23 April 2024 16:24:40
Eccentricity: 0.0007936
inclination: 48.4416°
perigee height: 652 km
apogee height: 663 km
right ascension of ascending node: 278.5864°
argument of perigee: 260.0593°
revolutions per day: 14.71151809
mean anomaly at epoch: 99.9423°
orbit number at epoch: 85081

The dashed part of the orbit path shows where the satellite is in the earth's shadow,  

DLR